Skip Page Navigation
NASA JPL Caltech
NASA Logo - Jet Propulsion Laboratory + View the NASA Portal
+ Near-Earth Object (NEO) Program
Search JPL
JPL Home Earth Solar System Stars & Galaxies Technology
JPL Solar System Dynamics
BODIES ORBITS EPHEMERIDES TOOLS PHYSICAL DATA DISCOVERY FAQ SITE MAP
JPL Small-Body Database Browser
Search: [ help ]  
85989 (1999 JD6)
Classification: Aten [NEO, PHA]          SPK-ID: 2085989
Ephemeris | Orbit Diagram | Orbital Elements | Physical Parameters | Discovery Circumstances | Close-Approach Data ]

[ hide orbit diagram ]
Orbit Diagram
Note: Make sure you have Java enabled on your browser to see the applet. This applet is provided as a 3D orbit visualization tool. The applet was implemented using 2-body methods, and hence should not be used for determining accurate long-term trajectories (over several years or decades) or planetary encounter circumstances. For accurate long-term ephemerides, please instead use our Horizons system.
Orbit Viewer

Additional Notes: the orbits shown in the applet are color coded. The planets are white lines, and the asteroid/comet is a blue line. The bright white line indicates the portion of the orbit that is above the ecliptic plane, and the darker portion is below the ecliptic plane. Likewise for the asteroid/comet orbit, the light blue indicates the portion above the ecliptic plane, and the dark blue the portion below the ecliptic plane.

Orbit Viewer applet originally written and kindly provided by Osamu Ajiki (AstroArts), and further modified by Ron Baalke (JPL).


Orbital Elements at Epoch 2456400.5 (2013-Apr-18.0) TDB
Reference: JPL 180 (heliocentric ecliptic J2000)
 Element Value Uncertainty (1-sigma)   Units 
e .6328879445405966 5.2038e-08  
a .8826650814054301 2.0797e-09 AU
q .3240369923169891 4.6376e-08 AU
i 17.05601318618866 4.9106e-06 deg
node 130.2474361804221 1.2578e-05 deg
peri 309.1838266895201 1.1023e-05 deg
M 29.36771348991109 1.1761e-05 deg
tp 2456375.790726315103
(2013-Mar-24.29072632)
9.8495e-06 JED
period 302.8951685196328
0.83
1.0705e-06
2.931e-09
d
yr
n 1.188530017693781 4.2006e-09 deg/d
Q 1.441293170493871 3.396e-09 AU
  Orbit Determination Parameters
   # obs. used (total)      1174  
   # delay obs. used      0  
   # Doppler obs. used      1  
   data-arc span      8368 days (22.91 yr)  
   first obs. used      1990-06-22  
   last obs. used      2013-05-20  
   planetary ephem.      DE405  
   SB-pert. ephem.      SB405-CPV-2  
   condition code      0  
   fit RMS      .58317  
   data source      ORB  
   producer      Otto Matic  
   solution date      2013-May-21 01:22:01  

Additional Information
 Earth MOID = .0481394 AU 
 T_jup = 6.505 
[ show covariance matrix ]

Ephemeris | Orbit Diagram | Orbital Elements | Physical Parameters | Discovery Circumstances | Close-Approach Data ]

Physical Parameter Table
Parameter Symbol Value Units Sigma Reference Notes
absolute magnitude H 16.978 mag .71327 180 autocmod 2.5c
rotation period rot_per 7.68 h n/a Asteroid Lightcurve DataBase (Rev. 2013-May-01) Published Reference List:
[Pravec, P.; Wolf, M.; Sarounova, L. (1999) http://www.asu.cas.cz/~ppravec/neo.htm]
[Pravec, P.; Wolf, M.; Sarounova, L. (2000) http://www.asu.cas.cz/~ppravec/neo.htm]
[Szabo, Gy.M.; Csak, B.; Sarneczky, K.; Kiss, L.L. (2001) Astron. Astrophys. 375, 285-292.]
[Polishook, D.; Brosch, N.; Prianik, D. (2005) Abstr. IAU Symp. 229, p. 60-61.]
[Polishook, D.; Brosch, N. (2008) Icarus 194, 111-124.]
SMASSII spectral type spec_B K   n/a Binzel et al. (2001) Icarus 151, 139-149  

85989 (1999 JD6)          Discovered 1999-May-12 by LONEOS at Anderson Mesa (699)
Reference: 20040830/Numbers.arcLast Updated: 2004-09-06

[ show close-approach data ]
Ephemeris | Orbit Diagram | Orbital Elements | Physical Parameters | Discovery Circumstances | Close-Approach Data ]
ABOUT SSD CREDITS/AWARDS PRIVACY/COPYRIGHT GLOSSARY LINKS
FirstGov 2013-May-23 15:31 UT
(server date/time)  
NASA Home Page
Site Manager:   Donald K. Yeomans
Webmaster  Alan B. Chamberlin